IU5GBO-13 Weather Reports


Display with metric or nautical units.
time (UTC)temp
F
wind
direction
speed
MPH
gust
MPH
rain 1hr
in
rain 24hr
in
rain mn
in
humidity
%
barometer
mb
20260507054621 57 0.0 0.0 0.00 0.00 0.00 80 1015.2
20260507053620 56 0.0 0.0 0.00 0.00 0.00 82 1015.2
20260507052621 55 0.0 0.0 0.00 0.00 0.00 81 1015.2
20260507051620 55 0.0 0.0 0.00 0.00 0.00 82 1015.1
20260507050620 54 0.0 0.0 0.00 0.00 0.00 82 1015.1
20260507045620 54 0.0 0.0 0.00 0.00 0.00 83 1014.9
20260507044620 53 0.0 0.0 0.00 0.00 0.00 83 1014.9
20260507043621 53 0.0 0.0 0.00 0.00 0.00 83 1014.8
20260507042620 53 0.0 0.0 0.00 0.00 0.00 83 1014.7
20260507041620 53 0.0 0.0 0.00 0.00 0.00 83 1014.6
20260507040621 53 0.0 0.0 0.00 0.00 0.00 82 1014.6
20260507035621 54 0.0 0.0 0.00 0.00 0.00 81 1014.6
20260507034620 54 0.0 0.0 0.00 0.00 0.00 82 1014.5
20260507033621 53 0.0 0.0 0.00 0.00 0.00 82 1014.4
20260507032620 54 0.0 0.0 0.00 0.00 0.00 81 1014.5
20260507031620 54 0.0 0.0 0.00 0.00 0.00 80 1014.5
20260507030620 54 0.0 0.0 0.00 0.00 0.00 80 1014.5
20260507025621 54 0.0 0.0 0.00 0.00 0.00 80 1014.5
20260507024621 54 0.0 0.0 0.00 0.00 0.00 80 1014.5
20260507023620 54 0.0 0.0 0.00 0.00 0.00 80 1014.5
20260507022620 54 0.0 0.0 0.00 0.00 0.00 80 1014.4
20260507021621 54 0.0 0.0 0.00 0.00 0.00 80 1014.5
20260507020620 54 0.0 0.0 0.00 0.00 0.00 80 1014.4
20260507015620 55 0.0 0.0 0.00 0.00 0.00 79 1014.4
20260507014621 55 0.0 0.0 0.00 0.00 0.00 79 1014.3
20260507013620 55 0.0 0.0 0.00 0.00 0.00 80 1014.3
20260507012620 55 0.0 0.0 0.00 0.00 0.00 80 1014.1
20260507011621 55 0.0 0.0 0.00 0.00 0.00 81 1014.2
20260507010620 55 0.0 0.0 0.00 0.00 0.00 80 1014.1
20260507005620 56 0.0 0.0 0.00 0.00 0.00 80 1014.3
20260507004621 56 0.0 0.0 0.00 0.00 0.00 79 1014.4
20260507003620 56 0.0 0.0 0.00 0.00 0.00 80 1014.4
20260507002620 56 0.0 0.0 0.00 0.00 0.00 80 1014.3
20260507001621 56 0.0 0.0 0.00 0.00 0.00 80 1014.4
20260507000620 57 0.0 0.0 0.00 0.00 0.00 78 1014.4
20260506235620 58 0.0 0.0 0.00 0.00 0.00 75 1014.4
20260506234620 59 0.0 0.0 0.00 0.00 0.00 70 1014.4
20260506233620 60 0.0 0.0 0.00 0.00 0.00 67 1014.3
20260506232621 61 0.0 0.0 0.00 0.00 0.00 66 1014.4
20260506231620 61 0.0 0.0 0.00 0.00 0.00 69 1014.3
20260506230620 62 0.0 0.0 0.00 0.00 0.00 81 1013.9
20260506225620 62 0.0 0.0 0.00 0.00 0.00 82 1014.0
20260506224620 62 0.0 0.0 0.00 0.00 0.00 82 1014.1
20260506223620 62 0.0 0.0 0.00 0.00 0.00 82 1014.2
20260506222620 62 0.0 0.0 0.00 0.00 0.00 82 1014.3
20260506221620 62 0.0 0.0 0.00 0.00 0.00 82 1014.3
20260506220620 62 0.0 0.0 0.00 0.00 0.00 82 1014.3
20260506215620 62 0.0 0.0 0.00 0.00 0.00 82 1014.3
20260506214620 62 0.0 0.0 0.00 0.00 0.00 81 1014.2
20260506213620 62 0.0 0.0 0.00 0.00 0.00 81 1014.2
20260506212620 62 0.0 0.0 0.00 0.00 0.00 81 1014.2
20260506211621 62 0.0 0.0 0.00 0.00 0.00 81 1014.1
20260506210620 62 0.0 0.0 0.00 0.00 0.00 81 1014.1
20260506205620 63 0.0 0.0 0.00 0.00 0.00 81 1014.2
20260506204620 63 0.0 0.0 0.00 0.00 0.00 81 1014.1
20260506203620 63 0.0 0.0 0.00 0.00 0.00 81 1014.1
20260506202620 63 0.0 0.0 0.00 0.00 0.00 81 1014.1
20260506201620 63 0.0 0.0 0.00 0.00 0.00 81 1013.9
20260506200620 63 0.0 0.0 0.00 0.00 0.00 82 1013.7
20260506195620 63 0.0 0.0 0.00 0.00 0.00 82 1013.7
20260506194620 63 0.0 0.0 0.00 0.00 0.00 82 1013.6
20260506193620 63 0.0 0.0 0.00 0.00 0.00 82 1013.3
20260506192620 63 0.0 0.0 0.00 0.00 0.00 81 1013.3
20260506191620 63 0.0 0.0 0.00 0.00 0.00 81 1013.1
20260506190620 63 0.0 0.0 0.00 0.00 0.00 81 1013.1
20260506185620 63 0.0 0.0 0.00 0.00 0.00 81 1012.9
20260506184620 63 0.0 0.0 0.00 0.00 0.00 81 1012.8
20260506183620 64 0.0 0.0 0.00 0.00 0.00 80 1012.7
20260506182620 64 0.0 0.0 0.00 0.00 0.00 80 1012.5
20260506181620 64 0.0 0.0 0.00 0.00 0.00 79 1012.6
20260506180620 64 0.0 0.0 0.00 0.00 0.00 79 1012.6
20260506175619 64 0.0 0.0 0.00 0.00 0.00 78 1012.6
20260506174620 65 0.0 0.0 0.00 0.00 0.00 78 1012.5
20260506173619 65 0.0 0.0 0.00 0.00 0.00 77 1012.4
20260506172620 65 0.0 0.0 0.00 0.00 0.00 77 1012.5
20260506171620 66 0.0 0.0 0.00 0.00 0.00 76 1012.5
20260506170619 66 0.0 0.0 0.00 0.00 0.00 75 1012.4
20260506165619 66 0.0 0.0 0.00 0.00 0.00 74 1012.4
20260506164620 67 0.0 0.0 0.00 0.00 0.00 73 1012.4
20260506163620 67 0.0 0.0 0.00 0.00 0.00 72 1012.6
20260506162620 68 0.0 0.0 0.00 0.00 0.00 71 1012.5
20260506161620 68 0.0 0.0 0.00 0.00 0.00 70 1012.6
20260506160620 68 0.0 0.0 0.00 0.00 0.00 71 1012.6
20260506155619 67 0.0 0.0 0.00 0.00 0.00 71 1012.8
20260506154619 68 0.0 0.0 0.00 0.00 0.00 69 1012.8
20260506153620 68 0.0 0.0 0.00 0.00 0.00 69 1012.6
20260506152620 68 0.0 0.0 0.00 0.00 0.00 69 1012.6
20260506151620 69 0.0 0.0 0.00 0.00 0.00 68 1012.6
20260506150620 70 0.0 0.0 0.00 0.00 0.00 66 1012.5
20260506145619 69 0.0 0.0 0.00 0.00 0.00 67 1012.6
20260506144620 70 0.0 0.0 0.00 0.00 0.00 65 1012.6
20260506143620 71 0.0 0.0 0.00 0.00 0.00 65 1012.5
20260506142620 70 0.0 0.0 0.00 0.00 0.00 65 1012.6
20260506141619 70 0.0 0.0 0.00 0.00 0.00 65 1012.6
20260506140619 70 0.0 0.0 0.00 0.00 0.00 64 1012.5
20260506135619 71 0.0 0.0 0.00 0.00 0.00 63 1012.5
20260506134619 71 0.0 0.0 0.00 0.00 0.00 64 1012.5
20260506133620 70 0.0 0.0 0.00 0.00 0.00 65 1012.5
20260506132620 71 0.0 0.0 0.00 0.00 0.00 65 1012.6
20260506131620 71 0.0 0.0 0.00 0.00 0.00 66 1012.7
20260506130620 71 0.0 0.0 0.00 0.00 0.00 65 1012.7
20260506125620 71 0.0 0.0 0.00 0.00 0.00 66 1012.8
20260506124620 70 0.0 0.0 0.00 0.00 0.00 65 1012.8
20260506123620 70 0.0 0.0 0.00 0.00 0.00 66 1012.8
20260506122620 70 0.0 0.0 0.00 0.00 0.00 67 1013.0
20260506121620 70 0.0 0.0 0.00 0.00 0.00 66 1013.1
20260506120620 70 0.0 0.0 0.00 0.00 0.00 66 1013.1
20260506115620 70 0.0 0.0 0.00 0.00 0.00 67 1012.9
20260506114620 70 0.0 0.0 0.00 0.00 0.00 67 1013.0
20260506113620 71 0.0 0.0 0.00 0.00 0.00 67 1012.9
20260506112619 71 0.0 0.0 0.00 0.00 0.00 65 1012.9
20260506111619 71 0.0 0.0 0.00 0.00 0.00 66 1012.7
20260506110620 70 0.0 0.0 0.00 0.00 0.00 68 1012.9
20260506105620 67 0.0 0.0 0.00 0.00 0.00 73 1013.2
20260506104619 66 0.0 0.0 0.00 0.00 0.00 74 1013.2
20260506103623 67 0.0 0.0 0.00 0.00 0.00 73 1013.2
20260506102620 66 0.0 0.0 0.00 0.00 0.00 75 1013.2
20260506101620 65 0.0 0.0 0.00 0.00 0.00 77 1013.2
20260506100620 65 0.0 0.0 0.00 0.00 0.00 76 1013.1
20260506095619 65 0.0 0.0 0.00 0.00 0.00 74 1013.3
20260506094619 66 0.0 0.0 0.00 0.00 0.00 74 1013.2
20260506093619 65 0.0 0.0 0.00 0.00 0.00 73 1013.1
20260506092620 66 0.0 0.0 0.00 0.00 0.00 72 1013.0
20260506091620 66 0.0 0.0 0.00 0.00 0.00 71 1013.0
20260506090619 66 0.0 0.0 0.00 0.00 0.00 73 1013.0
20260506085620 64 0.0 0.0 0.00 0.00 0.00 76 1012.9
20260506084619 63 0.0 0.0 0.00 0.00 0.00 76 1012.9
20260506083620 63 0.0 0.0 0.00 0.00 0.00 77 1012.7
20260506082619 63 0.0 0.0 0.00 0.00 0.00 77 1012.6
20260506081620 63 0.0 0.0 0.00 0.00 0.00 76 1012.6
20260506080619 63 0.0 0.0 0.00 0.00 0.00 74 1012.5
20260506072619 63 0.0 0.0 0.00 0.00 0.00 74 1012.5
20260506071620 63 0.0 0.0 0.00 0.00 0.00 75 1012.4
20260506070620 62 0.0 0.0 0.00 0.00 0.00 78 1012.5
20260506061619 62 0.0 0.0 0.00 0.00 0.00 76 1012.4
20260506060619 62 0.0 0.0 0.00 0.00 0.00 80 1012.6